Regional Weather Roundup
Issued by NWS

Home | Current Version | Previous Version | Graphics & Text | Print | Product List | Glossary On
Versions: 1 2 3 4 5 6 7 8 9 10 11 12 13 14 15 16 17 18 19 20 21 22 23 24 25 26 27 28 29 30 31 32 33 34 35 36 37 38 39 40 41 42 43 44 45 46 47 48 49 50
000
ASUS43 KMKX 260221
RWRWI

WISCONSIN REGIONAL WEATHER ROUNDUP
NATIONAL WEATHER SERVICE MILWAUKEE/SULLIVAN WI
900 PM CDT MON JUL 25 2016

NOTE: "FAIR" INDICATES FEW OR NO CLOUDS BELOW 12,000 FEET WITH NO
SIGNIFICANT WEATHER AND/OR OBSTRUCTIONS TO VISIBILITY.

WIZ001-002-006>008-014>016-023>028-260300-
NORTHWEST WISCONSIN

CITY           SKY/WX    TMP DP  RH WIND       PRES   REMARKS
SUPERIOR ARPT  CLEAR     75  65  72 SW5       29.97R
ASHLAND        CLEAR     71  63  75 S6        29.98R
HAYWARD        CLEAR     75  64  68 CALM      30.01S
SIREN          NOT AVBL
CUMBERLAND     CLEAR     70  63  78 W5        30.03R
RICE LAKE      CLEAR     69  65  84 CALM      30.03S
CHETEK         CLEAR     73  66  79 CALM      30.02S
LADYSMITH      CLEAR     71  65  79 CALM      30.04R
EAU CLAIRE     CLEAR     75  65  70 CALM      30.01S
MENOMONIE      CLEAR     78  62  57 CALM      30.02S HX  80
NEW RICHMOND   CLEAR     74  65  72 CALM      30.03R
OSCEOLA        CLEAR     74  67  80 CALM      30.04S
$$

WIZ003>005-009-010-017-018-260300-
NORTH CENTRAL WISCONSIN

CITY           SKY/WX    TMP DP  RH WIND       PRES   REMARKS
MANITOWISH WTR CLEAR     65  65  99 CALM      30.03R
ARBOR VITAE    CLEAR     69  62  77 CALM      30.03S
WOODRUFF       CLEAR     69  62  77 CALM      30.03S
RHINELANDER    CLEAR     65  60  84 CALM      30.03S
EAGLE RIVER    CLEAR     65  57  75 CALM      30.03R
LAND O LAKES   CLEAR     64  59  85 CALM      30.03S
PHILLIPS       CLEAR     70  63  78 CALM      30.02S
TOMAHAWK       CLEAR     65  61  87 CALM      30.03S
MEDFORD        CLEAR     66  65  95 CALM      30.03S
MERRILL        CLEAR     70  62  76 W3        30.03R
$$

WIZ029-030-035-036-043>047-260300-
CENTRAL WISCONSIN

CITY           SKY/WX    TMP DP  RH WIND       PRES   REMARKS
WAUSAU         CLEAR     74  60  61 W5        30.00S
MOSINEE        CLEAR     73  61  64 W6        30.04R
MARSHFIELD     CLEAR     71  63  75 W5        30.03R
STEVENS POINT  CLEAR     71  62  75 CALM      30.03R
WAUPACA        CLEAR     73  64  72 CALM      30.01R
WAUTOMA        CLEAR     71  66  84 CALM      30.02R
WISC RAPIDS    CLEAR     70  63  78 CALM      30.03R
CAMP DOUGLAS   PTCLDY    68  64  88 NW1       30.03R
$$

WIZ011>013-019>022-031-037>040-048>050-260300-
NORTHEAST WISCONSIN

CITY           SKY/WX    TMP DP  RH WIND       PRES   REMARKS
ANTIGO         CLEAR     67  62  84 CALM      30.03R
SHAWANO        CLEAR     72  64  74 CALM      29.99R
OCONTO         CLEAR     69  69 100 CALM      29.97R
STURGEON BAY   CLEAR     71  65  81 SW3       29.98R
GREEN BAY      CLEAR     70  68  93 W5        29.98R
MANITOWOC      MOCLDY    77  63  61 W5        29.99R
APPLETON       PTCLDY    73  61  64 VRB5      29.99R
CLINTONVILLE   CLEAR     72  61  68 CALM      29.99S
OSHKOSH        CLEAR     74  63  68 W3        30.00R
$$

WIZ032>034-041-042-053>061-260300-
SOUTHWEST WISCONSIN

CITY           SKY/WX    TMP DP  RH WIND       PRES   REMARKS
LA CROSSE      CLEAR     78  66  66 CALM      30.02R HX  80
SPARTA         CLEAR     69  67  91 CALM      30.04R
VIROQUA        CLEAR     69  67  92 CALM      30.06R
BOSCOBEL       CLEAR     72  67  84 CALM      30.03R
PRAIRIE DU CHI CLEAR     73  66  78 CALM      30.03R
PLATTEVILLE    CLEAR     73  68  82 NW3       30.04S
$$

WIZ056-057-062-063-064-067-068-260300-
SOUTH CENTRAL WISCONSIN

CITY           SKY/WX    TMP DP  RH WIND       PRES   REMARKS
REEDSBURG      CLEAR     74  66  75 W3        30.03R
BARABOO/DELLS  PTCLDY    73  63  71 CALM      30.03S
LONE ROCK      CLEAR     72  67  84 W3        30.03R
MINERAL POINT  CLEAR     72  68  88 CALM      30.05R
MADISON        PTCLDY    73  66  78 CALM      30.01S
MIDDLETON      PTCLDY    72  67  84 CALM      30.03S
WATERTOWN      CLEAR     72  67  84 CALM      30.01S
MONROE         CLEAR     73  63  68 NW6       30.03S
JANESVILLE     CLEAR     75  66  73 CALM      30.01R
$$

WIZ051-052-058>065-066-070>072-260300-
SOUTHEAST WISCONSIN

CITY           SKY/WX    TMP DP  RH WIND       PRES   REMARKS
MILWAUKEE      PTCLDY    79  63  57 S5        30.00R HX  80
WAUKESHA       CLEAR     73  63  68 NW5       30.02S
MILWAUKEE/TIMM CLEAR     77  59  53 NW5       30.01R
RACINE         CLEAR     75  61  61 S3        30.02R
BURLINGTON     CLEAR     72  65  80 CALM      30.02R
KENOSHA        CLEAR     76  62  62 S5        30.01S
FOND DU LAC    CLEAR     74  64  71 W5        30.01R
SHEBOYGAN      CLEAR     70  65  84 CALM      30.00R
WEST BEND      CLEAR     72  63  73 CALM      30.02R
JUNEAU         CLEAR     73  65  74 CALM      30.03R
$$

LSZ147-162-260300-
LAKE SUPERIOR

STATION/POSITION TIME  TEMP    WIND        PRES    WAVE
                       AIR SEA DIR/SP/G            HT/PER
                 (UTC) (F)     (DEG/KT/KT) (MB)    (FT/S)
W MID LAKE BUOY  0150   65 60  230/  8/  8 1013.4R   1/ 4
DEVILS ISLAND    0200   73     220/ 11/ 12 1013.9R
PORT WING        0000   82     250/  5/  7 1014.2
SAXON HARBOR     0100   76     210/  3/  3 1014.6S
$$

LMZ867-665-643>646-260300-
LAKE MICHIGAN

STATION/POSITION TIME  TEMP    WIND        PRES    WAVE
                       AIR SEA DIR/SP/G            HT/PER
                 (UTC) (F)     (DEG/KT/KT) (MB)    (FT/S)
CHAMBERS ISLAND  0100   73        CALM     1014.2R
S GREEN BAY BUOY 0200   76 75  260/  6/  6   N/A
N MID LAKE BUOY  0150   71 71  150/  6/  6 1014.0R   1
NORTHPORT PIER   0100   74     120/  8/ 12 1014.2R
SISTER BAY       0121   78     130/  6/  9   N/A
ALGOMA LAKESHORE 0113             CALM       N/A
KEWAUNEE LAKESHO 0100          190/  3/  5   N/A
SHEBOYGAN LAKESH 0200   73     180/  3/  4 1015.6R
PORT WASHINGTON  0100   73     190/  2/  5 1016.3
ATWATER BUOY     0200   64 53  180/  4/  6 1017.6R
MILWAUKEE LAKESH 0110   69     160/  2/  2   N/A
S MID LAKE BUOY  0150   75 74  180/  6/  6 1015.3R   0
KENOSHA   LAKESH 0200   76     170/  3/  5 1015.6R
$$

TC  - TEMPERATURE IN CELSIUS
VSB - VISIBILITY IN STATUTE MILES
WCI - WIND CHILL INDEX
HX  - HEAT INDEX





USA.gov is the U.S. government's official web portal to all federal, state and local government web resources and services.